Date_Time,Julian_Date,Latitude,Longitude,Instrument_Depth,U,V,Speed,Direction
(yyyy-mm-dd hh:mn:ss UTC),(JD),(+ deg. North),(+ deg. East),(m),(cm/s),(cm/s),(cm/s),(deg True)
1981-10-20 23:00:00 UTC,2444898.458333,28.7408,-95.2406,0212,5.67,9.43,11.0000,31.0000
1981-10-20 23:30:00 UTC,2444898.479167,28.7408,-95.2406,0212,5.45,10.69,12.0000,27.0000
1981-10-21 00:00:00 UTC,2444898.500000,28.7408,-95.2406,0212,5.90,11.58,13.0000,27.0000
1981-10-21 00:30:00 UTC,2444898.520833,28.7408,-95.2406,0212,6.10,11.48,13.0000,28.0000
1981-10-21 01:00:00 UTC,2444898.541667,28.7408,-95.2406,0212,5.90,11.58,13.0000,27.0000
1981-10-21 01:30:00 UTC,2444898.562500,28.7408,-95.2406,0212,5.26,10.79,12.0000,26.0000
1981-10-21 02:00:00 UTC,2444898.583333,28.7408,-95.2406,0212,5.26,10.79,12.0000,26.0000
1981-10-21 02:30:00 UTC,2444898.604167,28.7408,-95.2406,0212,5.45,10.69,12.0000,27.0000
1981-10-21 03:00:00 UTC,2444898.625000,28.7408,-95.2406,0212,5.26,10.79,12.0000,26.0000
1981-10-21 03:30:00 UTC,2444898.645833,28.7408,-95.2406,0212,5.07,10.88,12.0000,25.0000
1981-10-21 04:00:00 UTC,2444898.666667,28.7408,-95.2406,0212,5.26,10.79,12.0000,26.0000
1981-10-21 04:30:00 UTC,2444898.687500,28.7408,-95.2406,0212,5.45,10.69,12.0000,27.0000
1981-10-21 05:00:00 UTC,2444898.708333,28.7408,-95.2406,0212,5.45,10.69,12.0000,27.0000
1981-10-21 05:30:00 UTC,2444898.729167,28.7408,-95.2406,0212,5.45,10.69,12.0000,27.0000
1981-10-21 06:00:00 UTC,2444898.750000,28.7408,-95.2406,0212,5.26,10.79,12.0000,26.0000
1981-10-21 06:30:00 UTC,2444898.770833,28.7408,-95.2406,0212,4.65,9.97,11.0000,25.0000
1981-10-21 07:00:00 UTC,2444898.791667,28.7408,-95.2406,0212,4.82,9.89,11.0000,26.0000
1981-10-21 07:30:00 UTC,2444898.812500,28.7408,-95.2406,0212,5.45,10.69,12.0000,27.0000
1981-10-21 08:00:00 UTC,2444898.833333,28.7408,-95.2406,0212,4.65,9.97,11.0000,25.0000
1981-10-21 08:30:00 UTC,2444898.854167,28.7408,-95.2406,0212,4.47,10.05,11.0000,24.0000
1981-10-21 09:00:00 UTC,2444898.875000,28.7408,-95.2406,0212,4.82,9.89,11.0000,26.0000
1981-10-21 09:30:00 UTC,2444898.895833,28.7408,-95.2406,0212,4.99,9.80,11.0000,27.0000
1981-10-21 10:00:00 UTC,2444898.916667,28.7408,-95.2406,0212,4.99,9.80,11.0000,27.0000
1981-10-21 10:30:00 UTC,2444898.937500,28.7408,-95.2406,0212,4.82,9.89,11.0000,26.0000
1981-10-21 11:00:00 UTC,2444898.958333,28.7408,-95.2406,0212,5.45,10.69,12.0000,27.0000
1981-10-21 11:30:00 UTC,2444898.979167,28.7408,-95.2406,0212,6.00,10.39,12.0000,30.0000
1981-10-21 12:00:00 UTC,2444899.000000,28.7408,-95.2406,0212,6.88,9.83,12.0000,35.0000
1981-10-21 12:30:00 UTC,2444899.020833,28.7408,-95.2406,0212,7.55,9.33,12.0000,39.0000
1981-10-21 13:00:00 UTC,2444899.041667,28.7408,-95.2406,0212,7.07,8.43,11.0000,40.0000
1981-10-21 13:30:00 UTC,2444899.062500,28.7408,-95.2406,0212,6.62,8.78,11.0000,37.0000
1981-10-21 14:00:00 UTC,2444899.083333,28.7408,-95.2406,0212,6.31,9.01,11.0000,35.0000
1981-10-21 14:30:00 UTC,2444899.104167,28.7408,-95.2406,0212,7.39,9.46,12.0000,38.0000
1981-10-21 15:00:00 UTC,2444899.125000,28.7408,-95.2406,0212,10.40,9.37,14.0000,48.0000
1981-10-21 15:30:00 UTC,2444899.145833,28.7408,-95.2406,0212,13.93,9.75,17.0000,55.0000
1981-10-21 16:00:00 UTC,2444899.166667,28.7408,-95.2406,0212,14.42,9.01,17.0000,58.0000
1981-10-21 16:30:00 UTC,2444899.187500,28.7408,-95.2406,0212,13.86,8.00,16.0000,60.0000
1981-10-21 17:00:00 UTC,2444899.208333,28.7408,-95.2406,0212,13.24,7.04,15.0000,62.0000
1981-10-21 17:30:00 UTC,2444899.229167,28.7408,-95.2406,0212,12.47,6.36,14.0000,63.0000
1981-10-21 18:00:00 UTC,2444899.250000,28.7408,-95.2406,0212,11.48,6.10,13.0000,62.0000
1981-10-21 18:30:00 UTC,2444899.270833,28.7408,-95.2406,0212,9.80,4.99,11.0000,63.0000
1981-10-21 19:00:00 UTC,2444899.291667,28.7408,-95.2406,0212,9.89,4.82,11.0000,64.0000
1981-10-21 19:30:00 UTC,2444899.312500,28.7408,-95.2406,0212,8.99,4.38,10.0000,64.0000
1981-10-21 20:00:00 UTC,2444899.333333,28.7408,-95.2406,0212,7.71,4.64,9.0000,59.0000
1981-10-21 20:30:00 UTC,2444899.354167,28.7408,-95.2406,0212,7.28,5.29,9.0000,54.0000
1981-10-21 21:00:00 UTC,2444899.375000,28.7408,-95.2406,0212,6.99,5.66,9.0000,51.0000
1981-10-21 21:30:00 UTC,2444899.395833,28.7408,-95.2406,0212,7.09,5.54,9.0000,52.0000
1981-10-21 22:00:00 UTC,2444899.416667,28.7408,-95.2406,0212,8.09,5.88,10.0000,54.0000
1981-10-21 22:30:00 UTC,2444899.437500,28.7408,-95.2406,0212,9.12,6.15,11.0000,56.0000
1981-10-21 23:00:00 UTC,2444899.458333,28.7408,-95.2406,0212,10.06,6.54,12.0000,57.0000
1981-10-21 23:30:00 UTC,2444899.479167,28.7408,-95.2406,0212,10.78,7.27,13.0000,56.0000
1981-10-22 00:00:00 UTC,2444899.500000,28.7408,-95.2406,0212,10.78,7.27,13.0000,56.0000
1981-10-22 00:30:00 UTC,2444899.520833,28.7408,-95.2406,0212,11.74,7.62,14.0000,57.0000
1981-10-22 01:00:00 UTC,2444899.541667,28.7408,-95.2406,0212,11.87,7.42,14.0000,58.0000
1981-10-22 01:30:00 UTC,2444899.562500,28.7408,-95.2406,0212,12.99,7.50,15.0000,60.0000
1981-10-22 02:00:00 UTC,2444899.583333,28.7408,-95.2406,0212,12.24,6.79,14.0000,61.0000
1981-10-22 02:30:00 UTC,2444899.604167,28.7408,-95.2406,0212,11.26,6.50,13.0000,60.0000
1981-10-22 03:00:00 UTC,2444899.625000,28.7408,-95.2406,0212,9.01,6.31,11.0000,55.0000
1981-10-22 03:30:00 UTC,2444899.645833,28.7408,-95.2406,0212,7.31,6.82,10.0000,47.0000
1981-10-22 04:00:00 UTC,2444899.666667,28.7408,-95.2406,0212,5.54,7.09,9.0000,38.0000
1981-10-22 04:30:00 UTC,2444899.687500,28.7408,-95.2406,0212,4.77,7.63,9.0000,32.0000
1981-10-22 05:00:00 UTC,2444899.708333,28.7408,-95.2406,0212,4.64,7.71,9.0000,31.0000
1981-10-22 05:30:00 UTC,2444899.729167,28.7408,-95.2406,0212,3.91,5.80,7.0000,34.0000
1981-10-22 06:00:00 UTC,2444899.750000,28.7408,-95.2406,0212,3.78,4.66,6.0000,39.0000
1981-10-22 06:30:00 UTC,2444899.770833,28.7408,-95.2406,0212,2.73,2.93,4.0000,43.0000
1981-10-22 07:00:00 UTC,2444899.791667,28.7408,-95.2406,0212,1.34,1.49,2.0000,42.0000
1981-10-22 07:30:00 UTC,2444899.812500,28.7408,-95.2406,0212,0.69,0.72,1.0000,44.0000
1981-10-22 08:00:00 UTC,2444899.833333,28.7408,-95.2406,0212,0.93,0.37,1.0000,68.0000
1981-10-22 08:30:00 UTC,2444899.854167,28.7408,-95.2406,0212,1.93,-0.52,2.0000,105.0000
1981-10-22 09:00:00 UTC,2444899.875000,28.7408,-95.2406,0212,2.65,-1.41,3.0000,118.0000
1981-10-22 09:30:00 UTC,2444899.895833,28.7408,-95.2406,0212,2.67,-1.36,3.0000,117.0000
1981-10-22 10:00:00 UTC,2444899.916667,28.7408,-95.2406,0212,3.86,-1.04,4.0000,105.0000
1981-10-22 10:30:00 UTC,2444899.937500,28.7408,-95.2406,0212,3.98,-0.35,4.0000,95.0000
1981-10-22 11:00:00 UTC,2444899.958333,28.7408,-95.2406,0212,4.99,-0.35,5.0000,94.0000
1981-10-22 11:30:00 UTC,2444899.979167,28.7408,-95.2406,0212,5.91,-1.04,6.0000,100.0000
1981-10-22 12:00:00 UTC,2444900.000000,28.7408,-95.2406,0212,5.64,-2.05,6.0000,110.0000
1981-10-22 12:30:00 UTC,2444900.020833,28.7408,-95.2406,0212,4.85,-3.53,6.0000,126.0000
1981-10-22 13:00:00 UTC,2444900.041667,28.7408,-95.2406,0212,2.80,-4.15,5.0000,146.0000
1981-10-22 13:30:00 UTC,2444900.062500,28.7408,-95.2406,0212,0.87,-4.92,5.0000,170.0000
1981-10-22 14:00:00 UTC,2444900.083333,28.7408,-95.2406,0212,-0.83,-3.91,4.0000,192.0000
1981-10-22 14:30:00 UTC,2444900.104167,28.7408,-95.2406,0212,-1.69,-3.63,4.0000,205.0000
1981-10-22 15:00:00 UTC,2444900.125000,28.7408,-95.2406,0212,-1.93,-2.30,3.0000,220.0000
1981-10-22 15:30:00 UTC,2444900.145833,28.7408,-95.2406,0212,-3.46,-2.00,4.0000,240.0000
1981-10-22 16:00:00 UTC,2444900.166667,28.7408,-95.2406,0212,-4.57,-2.03,5.0000,246.0000
1981-10-22 16:30:00 UTC,2444900.187500,28.7408,-95.2406,0212,-5.35,-2.72,6.0000,243.0000
1981-10-22 17:00:00 UTC,2444900.208333,28.7408,-95.2406,0212,-4.19,-2.72,5.0000,237.0000
1981-10-22 17:30:00 UTC,2444900.229167,28.7408,-95.2406,0212,-3.47,-3.60,5.0000,224.0000
1981-10-22 18:00:00 UTC,2444900.250000,28.7408,-95.2406,0212,-2.50,-4.33,5.0000,210.0000
1981-10-22 18:30:00 UTC,2444900.270833,28.7408,-95.2406,0212,-2.82,-5.30,6.0000,208.0000
1981-10-22 19:00:00 UTC,2444900.291667,28.7408,-95.2406,0212,-4.02,-5.73,7.0000,215.0000
1981-10-22 19:30:00 UTC,2444900.312500,28.7408,-95.2406,0212,-5.36,-4.50,7.0000,230.0000
1981-10-22 20:00:00 UTC,2444900.333333,28.7408,-95.2406,0212,-5.30,-2.82,6.0000,242.0000
1981-10-22 20:30:00 UTC,2444900.354167,28.7408,-95.2406,0212,-2.52,-1.63,3.0000,237.0000
1981-10-22 21:00:00 UTC,2444900.375000,28.7408,-95.2406,0212,-0.62,-1.90,2.0000,198.0000
1981-10-22 21:30:00 UTC,2444900.395833,28.7408,-95.2406,0212,0.26,-2.99,3.0000,175.0000
1981-10-22 22:00:00 UTC,2444900.416667,28.7408,-95.2406,0212,0.90,-3.90,4.0000,167.0000
1981-10-22 22:30:00 UTC,2444900.437500,28.7408,-95.2406,0212,1.04,-4.89,5.0000,168.0000
1981-10-22 23:00:00 UTC,2444900.458333,28.7408,-95.2406,0212,-0.31,-5.99,6.0000,183.0000
1981-10-22 23:30:00 UTC,2444900.479167,28.7408,-95.2406,0212,-3.07,-6.29,7.0000,206.0000
1981-10-23 00:00:00 UTC,2444900.500000,28.7408,-95.2406,0212,-4.59,-5.28,7.0000,221.0000
1981-10-23 00:30:00 UTC,2444900.520833,28.7408,-95.2406,0212,-3.15,-3.89,5.0000,219.0000
1981-10-23 01:00:00 UTC,2444900.541667,28.7408,-95.2406,0212,-0.31,-1.98,2.0000,189.0000
1981-10-23 01:30:00 UTC,2444900.562500,28.7408,-95.2406,0212,0.12,-0.99,1.0000,173.0000
1981-10-23 02:00:00 UTC,2444900.583333,28.7408,-95.2406,0212,-0.53,0.85,1.0000,328.0000
1981-10-23 02:30:00 UTC,2444900.604167,28.7408,-95.2406,0212,-0.05,3.00,3.0000,359.0000
1981-10-23 03:00:00 UTC,2444900.625000,28.7408,-95.2406,0212,1.82,3.56,4.0000,27.0000
1981-10-23 03:30:00 UTC,2444900.645833,28.7408,-95.2406,0212,3.78,4.66,6.0000,39.0000
1981-10-23 04:00:00 UTC,2444900.666667,28.7408,-95.2406,0212,4.41,5.44,7.0000,39.0000
1981-10-23 04:30:00 UTC,2444900.687500,28.7408,-95.2406,0212,5.03,6.22,8.0000,39.0000
1981-10-23 05:00:00 UTC,2444900.708333,28.7408,-95.2406,0212,4.70,6.47,8.0000,36.0000
1981-10-23 05:30:00 UTC,2444900.729167,28.7408,-95.2406,0212,4.23,7.95,9.0000,28.0000
1981-10-23 06:00:00 UTC,2444900.750000,28.7408,-95.2406,0212,4.23,7.95,9.0000,28.0000
1981-10-23 06:30:00 UTC,2444900.770833,28.7408,-95.2406,0212,5.88,8.09,10.0000,36.0000
1981-10-23 07:00:00 UTC,2444900.791667,28.7408,-95.2406,0212,6.14,6.58,9.0000,43.0000
1981-10-23 07:30:00 UTC,2444900.812500,28.7408,-95.2406,0212,5.79,6.89,9.0000,40.0000
1981-10-23 08:00:00 UTC,2444900.833333,28.7408,-95.2406,0212,5.88,8.09,10.0000,36.0000
1981-10-23 08:30:00 UTC,2444900.854167,28.7408,-95.2406,0212,6.16,7.88,10.0000,38.0000
1981-10-23 09:00:00 UTC,2444900.875000,28.7408,-95.2406,0212,6.14,6.58,9.0000,43.0000
1981-10-23 09:30:00 UTC,2444900.895833,28.7408,-95.2406,0212,6.47,6.25,9.0000,46.0000
1981-10-23 10:00:00 UTC,2444900.916667,28.7408,-95.2406,0212,5.46,5.85,8.0000,43.0000
1981-10-23 10:30:00 UTC,2444900.937500,28.7408,-95.2406,0212,4.77,5.12,7.0000,43.0000
1981-10-23 11:00:00 UTC,2444900.958333,28.7408,-95.2406,0212,5.39,2.63,6.0000,64.0000
1981-10-23 11:30:00 UTC,2444900.979167,28.7408,-95.2406,0212,4.99,-0.35,5.0000,94.0000
1981-10-23 12:00:00 UTC,2444901.000000,28.7408,-95.2406,0212,3.83,-1.17,4.0000,107.0000
1981-10-23 12:30:00 UTC,2444901.020833,28.7408,-95.2406,0212,3.96,0.56,4.0000,82.0000
1981-10-23 13:00:00 UTC,2444901.041667,28.7408,-95.2406,0212,6.24,3.18,7.0000,63.0000
1981-10-23 13:30:00 UTC,2444901.062500,28.7408,-95.2406,0212,5.14,3.09,6.0000,59.0000
1981-10-23 14:00:00 UTC,2444901.083333,28.7408,-95.2406,0212,3.76,1.37,4.0000,70.0000
1981-10-23 14:30:00 UTC,2444901.104167,28.7408,-95.2406,0212,4.98,0.44,5.0000,85.0000
1981-10-23 15:00:00 UTC,2444901.125000,28.7408,-95.2406,0212,7.98,-0.56,8.0000,94.0000
1981-10-23 15:30:00 UTC,2444901.145833,28.7408,-95.2406,0212,10.76,-2.29,11.0000,102.0000
1981-10-23 16:00:00 UTC,2444901.166667,28.7408,-95.2406,0212,11.20,-4.30,12.0000,111.0000
1981-10-23 16:30:00 UTC,2444901.187500,28.7408,-95.2406,0212,9.19,-7.71,12.0000,130.0000
1981-10-23 17:00:00 UTC,2444901.208333,28.7408,-95.2406,0212,2.66,-10.67,11.0000,166.0000
1981-10-23 17:30:00 UTC,2444901.229167,28.7408,-95.2406,0212,-4.39,-14.34,15.0000,197.0000
1981-10-23 18:00:00 UTC,2444901.250000,28.7408,-95.2406,0212,-8.13,-18.27,20.0000,204.0000
1981-10-23 18:30:00 UTC,2444901.270833,28.7408,-95.2406,0212,-8.21,-19.33,21.0000,203.0000
1981-10-23 19:00:00 UTC,2444901.291667,28.7408,-95.2406,0212,-7.73,-17.36,19.0000,204.0000
1981-10-23 19:30:00 UTC,2444901.312500,28.7408,-95.2406,0212,-8.03,-17.22,19.0000,205.0000
1981-10-23 20:00:00 UTC,2444901.333333,28.7408,-95.2406,0212,-9.86,-18.54,21.0000,208.0000
1981-10-23 20:30:00 UTC,2444901.354167,28.7408,-95.2406,0212,-12.86,-19.07,23.0000,214.0000
1981-10-23 21:00:00 UTC,2444901.375000,28.7408,-95.2406,0212,-16.73,-18.58,25.0000,222.0000
1981-10-23 21:30:00 UTC,2444901.395833,28.7408,-95.2406,0212,-21.89,-19.03,29.0000,229.0000
1981-10-23 22:00:00 UTC,2444901.416667,28.7408,-95.2406,0212,-24.27,-17.63,30.0000,234.0000
1981-10-23 22:30:00 UTC,2444901.437500,28.7408,-95.2406,0212,-22.05,-13.78,26.0000,238.0000
1981-10-23 23:00:00 UTC,2444901.458333,28.7408,-95.2406,0212,-20.12,-11.15,23.0000,241.0000
1981-10-23 23:30:00 UTC,2444901.479167,28.7408,-95.2406,0212,-22.28,-11.35,25.0000,243.0000
1981-10-24 00:00:00 UTC,2444901.500000,28.7408,-95.2406,0212,-24.49,-13.57,28.0000,241.0000
1981-10-24 00:30:00 UTC,2444901.520833,28.7408,-95.2406,0212,-21.84,-15.87,27.0000,234.0000
1981-10-24 01:00:00 UTC,2444901.541667,28.7408,-95.2406,0212,-18.58,-16.73,25.0000,228.0000
1981-10-24 01:30:00 UTC,2444901.562500,28.7408,-95.2406,0212,-17.09,-15.39,23.0000,228.0000
1981-10-24 02:00:00 UTC,2444901.583333,28.7408,-95.2406,0212,-16.09,-13.50,21.0000,230.0000
1981-10-24 02:30:00 UTC,2444901.604167,28.7408,-95.2406,0212,-15.09,-13.12,20.0000,229.0000
1981-10-24 03:00:00 UTC,2444901.625000,28.7408,-95.2406,0212,-16.35,-14.72,22.0000,228.0000
1981-10-24 03:30:00 UTC,2444901.645833,28.7408,-95.2406,0212,-19.90,-13.42,24.0000,236.0000
1981-10-24 04:00:00 UTC,2444901.666667,28.7408,-95.2406,0212,-20.54,-7.88,22.0000,249.0000
1981-10-24 04:30:00 UTC,2444901.687500,28.7408,-95.2406,0212,-20.92,-6.80,22.0000,252.0000
1981-10-24 05:00:00 UTC,2444901.708333,28.7408,-95.2406,0212,-21.75,-10.14,24.0000,245.0000
1981-10-24 05:30:00 UTC,2444901.729167,28.7408,-95.2406,0212,-21.81,-14.16,26.0000,237.0000
1981-10-24 06:00:00 UTC,2444901.750000,28.7408,-95.2406,0212,-21.30,-14.91,26.0000,235.0000
1981-10-24 06:30:00 UTC,2444901.770833,28.7408,-95.2406,0212,-21.30,-14.91,26.0000,235.0000
1981-10-24 07:00:00 UTC,2444901.791667,28.7408,-95.2406,0212,-19.97,-15.05,25.0000,233.0000
1981-10-24 07:30:00 UTC,2444901.812500,28.7408,-95.2406,0212,-19.97,-15.05,25.0000,233.0000
1981-10-24 08:00:00 UTC,2444901.833333,28.7408,-95.2406,0212,-19.66,-13.77,24.0000,235.0000
1981-10-24 08:30:00 UTC,2444901.854167,28.7408,-95.2406,0212,-20.76,-15.65,26.0000,233.0000
1981-10-24 09:00:00 UTC,2444901.875000,28.7408,-95.2406,0212,-20.21,-16.36,26.0000,231.0000
1981-10-24 09:30:00 UTC,2444901.895833,28.7408,-95.2406,0212,-19.15,-16.07,25.0000,230.0000
1981-10-24 10:00:00 UTC,2444901.916667,28.7408,-95.2406,0212,-18.87,-16.40,25.0000,229.0000
1981-10-24 10:30:00 UTC,2444901.937500,28.7408,-95.2406,0212,-18.87,-16.40,25.0000,229.0000
1981-10-24 11:00:00 UTC,2444901.958333,28.7408,-95.2406,0212,-18.65,-15.10,24.0000,231.0000
1981-10-24 11:30:00 UTC,2444901.979167,28.7408,-95.2406,0212,-18.37,-13.84,23.0000,233.0000
1981-10-24 12:00:00 UTC,2444902.000000,28.7408,-95.2406,0212,-18.37,-13.84,23.0000,233.0000
1981-10-24 12:30:00 UTC,2444902.020833,28.7408,-95.2406,0212,-17.57,-13.24,22.0000,233.0000
1981-10-24 13:00:00 UTC,2444902.041667,28.7408,-95.2406,0212,-16.09,-13.50,21.0000,230.0000
1981-10-24 13:30:00 UTC,2444902.062500,28.7408,-95.2406,0212,-14.34,-12.47,19.0000,229.0000
1981-10-24 14:00:00 UTC,2444902.083333,28.7408,-95.2406,0212,-13.38,-12.04,18.0000,228.0000
1981-10-24 14:30:00 UTC,2444902.104167,28.7408,-95.2406,0212,-14.34,-12.47,19.0000,229.0000
1981-10-24 15:00:00 UTC,2444902.125000,28.7408,-95.2406,0212,-15.32,-12.86,20.0000,230.0000
1981-10-24 15:30:00 UTC,2444902.145833,28.7408,-95.2406,0212,-13.58,-10.23,17.0000,233.0000
1981-10-24 16:00:00 UTC,2444902.166667,28.7408,-95.2406,0212,-12.72,-7.95,15.0000,238.0000
1981-10-24 16:30:00 UTC,2444902.187500,28.7408,-95.2406,0212,-14.87,-8.24,17.0000,241.0000
1981-10-24 17:00:00 UTC,2444902.208333,28.7408,-95.2406,0212,-18.19,-10.50,21.0000,240.0000
1981-10-24 17:30:00 UTC,2444902.229167,28.7408,-95.2406,0212,-19.42,-14.11,24.0000,234.0000
1981-10-24 18:00:00 UTC,2444902.250000,28.7408,-95.2406,0212,-18.12,-14.16,23.0000,232.0000
1981-10-24 18:30:00 UTC,2444902.270833,28.7408,-95.2406,0212,-17.57,-13.24,22.0000,233.0000
1981-10-24 19:00:00 UTC,2444902.291667,28.7408,-95.2406,0212,-17.80,-12.93,22.0000,234.0000
1981-10-24 19:30:00 UTC,2444902.312500,28.7408,-95.2406,0212,-16.32,-13.22,21.0000,231.0000
1981-10-24 20:00:00 UTC,2444902.333333,28.7408,-95.2406,0212,-14.12,-12.71,19.0000,228.0000
1981-10-24 20:30:00 UTC,2444902.354167,28.7408,-95.2406,0212,-12.23,-11.81,17.0000,226.0000
1981-10-24 21:00:00 UTC,2444902.375000,28.7408,-95.2406,0212,-11.70,-10.91,16.0000,227.0000
1981-10-24 21:30:00 UTC,2444902.395833,28.7408,-95.2406,0212,-12.26,-10.28,16.0000,230.0000
1981-10-24 22:00:00 UTC,2444902.416667,28.7408,-95.2406,0212,-12.83,-11.15,17.0000,229.0000
1981-10-24 22:30:00 UTC,2444902.437500,28.7408,-95.2406,0212,-13.90,-12.96,19.0000,227.0000
1981-10-24 23:00:00 UTC,2444902.458333,28.7408,-95.2406,0212,-14.34,-12.47,19.0000,229.0000
1981-10-24 23:30:00 UTC,2444902.479167,28.7408,-95.2406,0212,-14.34,-12.47,19.0000,229.0000
1981-10-25 00:00:00 UTC,2444902.500000,28.7408,-95.2406,0212,-13.16,-12.28,18.0000,227.0000
1981-10-25 00:30:00 UTC,2444902.520833,28.7408,-95.2406,0212,-11.89,-10.71,16.0000,228.0000
1981-10-25 01:00:00 UTC,2444902.541667,28.7408,-95.2406,0212,-10.97,-10.23,15.0000,227.0000
1981-10-25 01:30:00 UTC,2444902.562500,28.7408,-95.2406,0212,-10.24,-9.55,14.0000,227.0000
1981-10-25 02:00:00 UTC,2444902.583333,28.7408,-95.2406,0212,-10.97,-10.23,15.0000,227.0000
1981-10-25 02:30:00 UTC,2444902.604167,28.7408,-95.2406,0212,-11.31,-11.31,16.0000,225.0000
1981-10-25 03:00:00 UTC,2444902.625000,28.7408,-95.2406,0212,-10.97,-10.23,15.0000,227.0000
1981-10-25 03:30:00 UTC,2444902.645833,28.7408,-95.2406,0212,-10.78,-7.27,13.0000,236.0000
1981-10-25 04:00:00 UTC,2444902.666667,28.7408,-95.2406,0212,-10.69,-5.45,12.0000,243.0000
1981-10-25 04:30:00 UTC,2444902.687500,28.7408,-95.2406,0212,-8.48,-5.30,10.0000,238.0000
1981-10-25 05:00:00 UTC,2444902.708333,28.7408,-95.2406,0212,-7.37,-5.16,9.0000,235.0000
1981-10-25 05:30:00 UTC,2444902.729167,28.7408,-95.2406,0212,-7.71,-4.64,9.0000,239.0000
1981-10-25 06:00:00 UTC,2444902.750000,28.7408,-95.2406,0212,-8.75,-4.85,10.0000,241.0000
1981-10-25 06:30:00 UTC,2444902.770833,28.7408,-95.2406,0212,-8.75,-4.85,10.0000,241.0000
1981-10-25 07:00:00 UTC,2444902.791667,28.7408,-95.2406,0212,-8.83,-4.69,10.0000,242.0000
1981-10-25 07:30:00 UTC,2444902.812500,28.7408,-95.2406,0212,-8.83,-4.69,10.0000,242.0000
1981-10-25 08:00:00 UTC,2444902.833333,28.7408,-95.2406,0212,-8.75,-4.85,10.0000,241.0000
1981-10-25 08:30:00 UTC,2444902.854167,28.7408,-95.2406,0212,-7.28,-5.29,9.0000,234.0000
1981-10-25 09:00:00 UTC,2444902.875000,28.7408,-95.2406,0212,-4.02,-5.73,7.0000,215.0000
1981-10-25 09:30:00 UTC,2444902.895833,28.7408,-95.2406,0212,-2.96,-6.34,7.0000,205.0000
1981-10-25 10:00:00 UTC,2444902.916667,28.7408,-95.2406,0212,-5.25,-6.04,8.0000,221.0000
1981-10-25 10:30:00 UTC,2444902.937500,28.7408,-95.2406,0212,-8.29,-5.59,10.0000,236.0000
1981-10-25 11:00:00 UTC,2444902.958333,28.7408,-95.2406,0212,-10.18,-6.36,12.0000,238.0000
1981-10-25 11:30:00 UTC,2444902.979167,28.7408,-95.2406,0212,-11.02,-6.89,13.0000,238.0000
1981-10-25 12:00:00 UTC,2444903.000000,28.7408,-95.2406,0212,-10.39,-6.00,12.0000,240.0000
1981-10-25 12:30:00 UTC,2444903.020833,28.7408,-95.2406,0212,-8.57,-5.15,10.0000,239.0000
1981-10-25 13:00:00 UTC,2444903.041667,28.7408,-95.2406,0212,-9.12,-6.15,11.0000,236.0000
1981-10-25 13:30:00 UTC,2444903.062500,28.7408,-95.2406,0212,-11.14,-6.70,13.0000,239.0000
1981-10-25 14:00:00 UTC,2444903.083333,28.7408,-95.2406,0212,-10.88,-5.07,12.0000,245.0000
1981-10-25 14:30:00 UTC,2444903.104167,28.7408,-95.2406,0212,-10.27,-3.94,11.0000,249.0000
1981-10-25 15:00:00 UTC,2444903.125000,28.7408,-95.2406,0212,-9.46,-3.26,10.0000,251.0000
1981-10-25 15:30:00 UTC,2444903.145833,28.7408,-95.2406,0212,-9.90,-1.39,10.0000,262.0000
1981-10-25 16:00:00 UTC,2444903.166667,28.7408,-95.2406,0212,-7.88,1.39,8.0000,280.0000
1981-10-25 16:30:00 UTC,2444903.187500,28.7408,-95.2406,0212,-4.91,3.44,6.0000,305.0000
1981-10-25 17:00:00 UTC,2444903.208333,28.7408,-95.2406,0212,-0.76,3.93,4.0000,349.0000
1981-10-25 17:30:00 UTC,2444903.229167,28.7408,-95.2406,0212,2.00,3.46,4.0000,30.0000
1981-10-25 18:00:00 UTC,2444903.250000,28.7408,-95.2406,0212,2.19,2.05,3.0000,47.0000
1981-10-25 18:30:00 UTC,2444903.270833,28.7408,-95.2406,0212,1.55,1.26,2.0000,51.0000
1981-10-25 19:00:00 UTC,2444903.291667,28.7408,-95.2406,0212,-0.00,0.00,0.0000,309.0000
1981-10-25 19:30:00 UTC,2444903.312500,28.7408,-95.2406,0212,-1.94,-0.48,2.0000,256.0000
1981-10-25 20:00:00 UTC,2444903.333333,28.7408,-95.2406,0212,-2.99,-0.26,3.0000,265.0000
1981-10-25 20:30:00 UTC,2444903.354167,28.7408,-95.2406,0212,-1.91,0.58,2.0000,287.0000
1981-10-25 21:00:00 UTC,2444903.375000,28.7408,-95.2406,0212,-0.67,0.74,1.0000,318.0000
1981-10-25 21:30:00 UTC,2444903.395833,28.7408,-95.2406,0212,0.98,0.19,1.0000,79.0000
1981-10-25 22:00:00 UTC,2444903.416667,28.7408,-95.2406,0212,2.96,-0.47,3.0000,99.0000
1981-10-25 22:30:00 UTC,2444903.437500,28.7408,-95.2406,0212,3.98,-0.42,4.0000,96.0000
1981-10-25 23:00:00 UTC,2444903.458333,28.7408,-95.2406,0212,5.00,0.17,5.0000,88.0000
1981-10-25 23:30:00 UTC,2444903.479167,28.7408,-95.2406,0212,5.85,1.35,6.0000,77.0000
1981-10-26 00:00:00 UTC,2444903.500000,28.7408,-95.2406,0212,6.34,2.96,7.0000,65.0000
1981-10-26 00:30:00 UTC,2444903.520833,28.7408,-95.2406,0212,6.93,4.00,8.0000,60.0000
1981-10-26 01:00:00 UTC,2444903.541667,28.7408,-95.2406,0212,6.71,4.36,8.0000,57.0000
1981-10-26 01:30:00 UTC,2444903.562500,28.7408,-95.2406,0212,5.75,5.56,8.0000,46.0000
1981-10-26 02:00:00 UTC,2444903.583333,28.7408,-95.2406,0212,5.16,7.37,9.0000,35.0000
1981-10-26 02:30:00 UTC,2444903.604167,28.7408,-95.2406,0212,6.15,9.12,11.0000,34.0000
1981-10-26 03:00:00 UTC,2444903.625000,28.7408,-95.2406,0212,6.62,8.78,11.0000,37.0000
1981-10-26 03:30:00 UTC,2444903.645833,28.7408,-95.2406,0212,7.39,9.46,12.0000,38.0000
1981-10-26 04:00:00 UTC,2444903.666667,28.7408,-95.2406,0212,6.71,9.95,12.0000,34.0000
1981-10-26 04:30:00 UTC,2444903.687500,28.7408,-95.2406,0212,5.07,10.88,12.0000,25.0000
1981-10-26 05:00:00 UTC,2444903.708333,28.7408,-95.2406,0212,4.45,12.22,13.0000,20.0000
1981-10-26 05:30:00 UTC,2444903.729167,28.7408,-95.2406,0212,4.10,11.28,12.0000,20.0000
1981-10-26 06:00:00 UTC,2444903.750000,28.7408,-95.2406,0212,2.85,10.63,11.0000,15.0000
1981-10-26 06:30:00 UTC,2444903.770833,28.7408,-95.2406,0212,2.66,10.67,11.0000,14.0000
1981-10-26 07:00:00 UTC,2444903.791667,28.7408,-95.2406,0212,4.82,9.89,11.0000,26.0000
1981-10-26 07:30:00 UTC,2444903.812500,28.7408,-95.2406,0212,6.50,11.26,13.0000,30.0000
1981-10-26 08:00:00 UTC,2444903.833333,28.7408,-95.2406,0212,5.69,12.79,14.0000,24.0000
1981-10-26 08:30:00 UTC,2444903.854167,28.7408,-95.2406,0212,4.33,13.31,14.0000,18.0000
1981-10-26 09:00:00 UTC,2444903.875000,28.7408,-95.2406,0212,2.29,11.78,12.0000,11.0000
1981-10-26 09:30:00 UTC,2444903.895833,28.7408,-95.2406,0212,0.19,11.00,11.0000,1.0000
1981-10-26 10:00:00 UTC,2444903.916667,28.7408,-95.2406,0212,-0.58,10.98,11.0000,357.0000
1981-10-26 10:30:00 UTC,2444903.937500,28.7408,-95.2406,0212,1.36,12.93,13.0000,6.0000
1981-10-26 11:00:00 UTC,2444903.958333,28.7408,-95.2406,0212,5.25,16.17,17.0000,18.0000
1981-10-26 11:30:00 UTC,2444903.979167,28.7408,-95.2406,0212,7.45,15.28,17.0000,26.0000
1981-10-26 12:00:00 UTC,2444904.000000,28.7408,-95.2406,0212,7.27,13.12,15.0000,29.0000
1981-10-26 12:30:00 UTC,2444904.020833,28.7408,-95.2406,0212,4.65,9.97,11.0000,25.0000